NKS890 KBOS-CYYZ

Flight info

Callsign NKS890
Flight time 1h 18m
Altitude 38000
Route HYLND7 HYLND DCT CAM Q822 GONZZ DCT WOZEE LINNG3
Aircraft A20N/M-SDE2E3FGHIRWXY/LB1

Departure

Time 2026-05-08 00:24
Airport Boston Logan International Airport (KBOS)

Arrival

Time 2026-05-08 01:42
Airport Toronto Pearson International Airport (CYYZ)
Time Latitude Longitude Altitude Speed Heading
2026-05-08 00:00 42.36296 -71.01615 28 ft 0 kts 342°
2026-05-08 00:12 42.36282 -71.01609 27 ft 3 kts 342°
2026-05-08 00:13 42.36264 -71.01601 27 ft 3 kts 342°
2026-05-08 00:13 42.36248 -71.01599 28 ft 2 kts 38°
2026-05-08 00:13 42.36240 -71.01616 28 ft 0 kts 104°
2026-05-08 00:16 42.36238 -71.01609 28 ft 3 kts 104°
2026-05-08 00:17 42.36229 -71.01565 28 ft 7 kts 108°
2026-05-08 00:17 42.36208 -71.01496 29 ft 6 kts 133°
2026-05-08 00:17 42.36182 -71.01457 30 ft 6 kts 115°
2026-05-08 00:17 42.36211 -71.01393 29 ft 12 kts 25°
2026-05-08 00:18 42.36274 -71.01369 27 ft 9 kts 30°
2026-05-08 00:18 42.36324 -71.01313 28 ft 10 kts 81°
2026-05-08 00:18 42.36297 -71.01228 30 ft 10 kts 122°
2026-05-08 00:18 42.36264 -71.01149 30 ft 10 kts 117°
2026-05-08 00:19 42.36232 -71.01056 29 ft 11 kts 112°
2026-05-08 00:19 42.36199 -71.00957 29 ft 11 kts 117°
2026-05-08 00:19 42.36164 -71.00849 28 ft 15 kts 113°
2026-05-08 00:19 42.36116 -71.00696 27 ft 19 kts 109°
2026-05-08 00:20 42.36076 -71.00538 27 ft 16 kts 107°
2026-05-08 00:20 42.36042 -71.00408 28 ft 14 kts 110°
2026-05-08 00:20 42.36013 -71.00288 30 ft 12 kts 108°
2026-05-08 00:20 42.35985 -71.00180 32 ft 13 kts 109°
2026-05-08 00:21 42.35939 -71.00053 32 ft 16 kts 135°
2026-05-08 00:21 42.35850 -70.99934 33 ft 18 kts 135°
2026-05-08 00:21 42.35764 -70.99818 32 ft 18 kts 135°
2026-05-08 00:21 42.35675 -70.99699 31 ft 18 kts 135°
2026-05-08 00:22 42.35588 -70.99584 29 ft 18 kts 136°
2026-05-08 00:22 42.35502 -70.99465 28 ft 15 kts 128°
2026-05-08 00:22 42.35494 -70.99354 29 ft 13 kts 75°
2026-05-08 00:22 42.35558 -70.99293 30 ft 14 kts 337°
2026-05-08 00:23 42.35647 -70.99405 28 ft 33 kts 315°
2026-05-08 00:23 42.35961 -70.99825 34 ft 94 kts 315°
2026-05-08 00:23 42.36571 -71.00635 44 ft 147 kts 311°
2026-05-08 00:23 42.37320 -71.01647 433 ft 156 kts 313°
2026-05-08 00:24 42.38108 -71.02698 944 ft 162 kts 311°
2026-05-08 00:24 42.38778 -71.03994 1447 ft 179 kts 300°
2026-05-08 00:24 42.39422 -71.05571 1807 ft 207 kts 300°
2026-05-08 00:24 42.40188 -71.07362 2300 ft 229 kts 300°
2026-05-08 00:25 42.41097 -71.09175 2817 ft 241 kts 311°
2026-05-08 00:25 42.42463 -71.10545 3007 ft 244 kts 331°
2026-05-08 00:25 42.44013 -71.11466 3072 ft 248 kts 336°
2026-05-08 00:25 42.45640 -71.12323 3601 ft 251 kts 336°
2026-05-08 00:26 42.47269 -71.13179 4003 ft 251 kts 336°
2026-05-08 00:26 42.48905 -71.14053 4666 ft 254 kts 336°
2026-05-08 00:26 42.50530 -71.14922 5544 ft 256 kts 337°
2026-05-08 00:26 42.52216 -71.15735 6423 ft 258 kts 339°
2026-05-08 00:27 42.53925 -71.16519 7276 ft 261 kts 338°
2026-05-08 00:27 42.55657 -71.17305 8135 ft 264 kts 338°
2026-05-08 00:27 42.57411 -71.18101 9002 ft 267 kts 337°
2026-05-08 00:27 42.59190 -71.18909 9855 ft 271 kts 337°
2026-05-08 00:28 42.61005 -71.19737 10463 ft 283 kts 336°
2026-05-08 00:28 42.62944 -71.20628 10797 ft 305 kts 336°
2026-05-08 00:28 42.64998 -71.21571 11122 ft 326 kts 336°
2026-05-08 00:28 42.67198 -71.22575 11657 ft 339 kts 336°
2026-05-08 00:29 42.69460 -71.23603 12388 ft 345 kts 335°
2026-05-08 00:29 42.71746 -71.24695 13145 ft 349 kts 332°
2026-05-08 00:29 42.73912 -71.26178 13878 ft 348 kts 321°
2026-05-08 00:29 42.75808 -71.28200 14544 ft 345 kts 309°
2026-05-08 00:30 42.77339 -71.30697 15236 ft 341 kts 297°
2026-05-08 00:30 42.78434 -71.33494 15955 ft 337 kts 286°
2026-05-08 00:30 42.79112 -71.36532 16708 ft 334 kts 277°
2026-05-08 00:30 42.79569 -71.39630 17490 ft 334 kts 274°
2026-05-08 00:31 42.79930 -71.42759 18240 ft 334 kts 272°
2026-05-08 00:31 42.80248 -71.45902 18846 ft 337 kts 271°
2026-05-08 00:31 42.80558 -71.49085 19415 ft 341 kts 271°
2026-05-08 00:31 42.80877 -71.52295 20008 ft 344 kts 272°
2026-05-08 00:32 42.81211 -71.55533 20617 ft 346 kts 272°
2026-05-08 00:32 42.81558 -71.58794 21234 ft 349 kts 272°
2026-05-08 00:32 42.81910 -71.62042 21814 ft 352 kts 272°
2026-05-08 00:32 42.82272 -71.65358 22390 ft 355 kts 272°
2026-05-08 00:33 42.82638 -71.68690 22954 ft 357 kts 272°
2026-05-08 00:33 42.83005 -71.72054 23478 ft 360 kts 272°
2026-05-08 00:33 42.83375 -71.75449 23921 ft 363 kts 272°
2026-05-08 00:33 42.83743 -71.78855 24356 ft 365 kts 272°
2026-05-08 00:34 42.84113 -71.82284 24796 ft 367 kts 272°
2026-05-08 00:34 42.84485 -71.85767 25032 ft 375 kts 272°
2026-05-08 00:34 42.84860 -71.89278 25522 ft 374 kts 272°
2026-05-08 00:34 42.85232 -71.92742 26124 ft 373 kts 272°
2026-05-08 00:35 42.85606 -71.96227 26669 ft 372 kts 272°
2026-05-08 00:35 42.85979 -71.99729 27060 ft 374 kts 272°
2026-05-08 00:35 42.86352 -72.03257 27447 ft 376 kts 272°
2026-05-08 00:35 42.86724 -72.06798 27745 ft 380 kts 272°
2026-05-08 00:36 42.87099 -72.10401 27874 ft 387 kts 272°
2026-05-08 00:36 42.87477 -72.14061 28026 ft 394 kts 272°
2026-05-08 00:36 42.87864 -72.17785 28209 ft 400 kts 272°
2026-05-08 00:36 42.88255 -72.21526 28531 ft 402 kts 272°
2026-05-08 00:37 42.88652 -72.25312 29002 ft 402 kts 272°
2026-05-08 00:37 42.89046 -72.29062 29754 ft 395 kts 272°
2026-05-08 00:37 42.89434 -72.32752 30312 ft 391 kts 272°
2026-05-08 00:38 42.90191 -72.40114 30947 ft 392 kts 272°
2026-05-08 00:38 42.90567 -72.43807 31280 ft 392 kts 272°
2026-05-08 00:38 42.90942 -72.47500 31625 ft 392 kts 272°
2026-05-08 00:38 42.91310 -72.51134 31959 ft 391 kts 272°
2026-05-08 00:39 42.91687 -72.54858 32304 ft 391 kts 272°
2026-05-08 00:39 42.92053 -72.58488 32617 ft 391 kts 272°
2026-05-08 00:39 42.92423 -72.62164 32983 ft 390 kts 272°
2026-05-08 00:39 42.92790 -72.65823 33357 ft 388 kts 272°
2026-05-08 00:40 42.93155 -72.69478 33622 ft 388 kts 272°
2026-05-08 00:40 42.93519 -72.73138 33891 ft 388 kts 272°
2026-05-08 00:40 42.93877 -72.76743 34102 ft 388 kts 272°
2026-05-08 00:40 42.94237 -72.80397 34297 ft 389 kts 272°
2026-05-08 00:41 42.94597 -72.84068 34502 ft 389 kts 272°
2026-05-08 00:41 42.94957 -72.87738 34716 ft 390 kts 272°
2026-05-08 00:41 42.95315 -72.91398 34897 ft 390 kts 272°
2026-05-08 00:41 42.95674 -72.95085 35121 ft 391 kts 272°
2026-05-08 00:42 42.96032 -72.98769 35236 ft 394 kts 272°
2026-05-08 00:42 42.96391 -73.02492 35387 ft 395 kts 272°
2026-05-08 00:42 42.96745 -73.06159 35584 ft 394 kts 272°
2026-05-08 00:42 42.97104 -73.09884 35775 ft 395 kts 272°
2026-05-08 00:43 42.97461 -73.13601 35941 ft 395 kts 272°
2026-05-08 00:43 42.97817 -73.17325 36147 ft 396 kts 272°
2026-05-08 00:43 42.98173 -73.21060 36317 ft 396 kts 272°
2026-05-08 00:43 42.98528 -73.24791 36485 ft 396 kts 272°
2026-05-08 00:44 42.98882 -73.28524 36741 ft 393 kts 272°
2026-05-08 00:44 42.99226 -73.32173 36975 ft 393 kts 271°
2026-05-08 00:44 42.99434 -73.35896 37074 ft 392 kts 269°
2026-05-08 00:44 42.99568 -73.39616 37232 ft 392 kts 268°
2026-05-08 00:45 42.99677 -73.43346 37373 ft 392 kts 268°
2026-05-08 00:45 42.99770 -73.47071 37516 ft 393 kts 268°
2026-05-08 00:45 42.99857 -73.50816 37658 ft 393 kts 268°
2026-05-08 00:45 42.99941 -73.54543 37797 ft 393 kts 268°
2026-05-08 00:46 43.00024 -73.58233 37867 ft 394 kts 268°
2026-05-08 00:46 43.00194 -73.65714 37930 ft 393 kts 268°
2026-05-08 00:47 43.00362 -73.73188 37872 ft 393 kts 268°
2026-05-08 00:47 43.00527 -73.80655 37881 ft 393 kts 268°
2026-05-08 00:48 43.00686 -73.88110 37881 ft 393 kts 268°
2026-05-08 00:48 43.00840 -73.95572 37883 ft 392 kts 268°
2026-05-08 00:49 43.00989 -74.03024 37891 ft 393 kts 268°
2026-05-08 00:49 43.01132 -74.10485 37896 ft 396 kts 268°
2026-05-08 00:50 43.01273 -74.18015 37893 ft 396 kts 268°
2026-05-08 00:50 43.01420 -74.25540 37895 ft 396 kts 268°
2026-05-08 00:51 43.01713 -74.33022 37897 ft 397 kts 269°
2026-05-08 00:51 43.02075 -74.40560 37902 ft 399 kts 270°
2026-05-08 00:52 43.02432 -74.48169 37899 ft 402 kts 270°
2026-05-08 00:52 43.02773 -74.55811 37903 ft 402 kts 269°
2026-05-08 00:53 43.03102 -74.63401 37903 ft 402 kts 269°
2026-05-08 00:53 43.03426 -74.71027 37909 ft 402 kts 269°
2026-05-08 00:54 43.03745 -74.78658 37910 ft 402 kts 269°
2026-05-08 00:54 43.04059 -74.86294 37908 ft 402 kts 269°
2026-05-08 00:55 43.04316 -74.92645 37910 ft 402 kts 269°
2026-05-08 00:55 43.04671 -75.01524 37911 ft 402 kts 269°
2026-05-08 00:56 43.04922 -75.07928 37923 ft 402 kts 269°
2026-05-08 00:56 43.05216 -75.15517 37909 ft 402 kts 269°
2026-05-08 00:57 43.05505 -75.23134 37913 ft 401 kts 269°
2026-05-08 00:57 43.05782 -75.30743 37910 ft 400 kts 269°
2026-05-08 00:58 43.06009 -75.38347 37906 ft 400 kts 269°
2026-05-08 00:58 43.06214 -75.45959 37915 ft 400 kts 269°
2026-05-08 00:58 43.06315 -75.49709 37542 ft 398 kts 269°
2026-05-08 00:59 43.06416 -75.53497 36850 ft 400 kts 269°
2026-05-08 00:59 43.06517 -75.57302 36186 ft 401 kts 269°
2026-05-08 00:59 43.06617 -75.61126 35576 ft 401 kts 269°
2026-05-08 00:59 43.06718 -75.64963 34961 ft 401 kts 269°
2026-05-08 01:00 43.06815 -75.68733 34368 ft 401 kts 269°
2026-05-08 01:00 43.06914 -75.72577 33728 ft 401 kts 269°
2026-05-08 01:00 43.07010 -75.76371 33102 ft 399 kts 268°
2026-05-08 01:00 43.07105 -75.80156 32537 ft 397 kts 269°
2026-05-08 01:01 43.07198 -75.83911 32055 ft 395 kts 269°
2026-05-08 01:01 43.07289 -75.87679 31924 ft 396 kts 269°
2026-05-08 01:01 43.07378 -75.91450 31910 ft 397 kts 269°
2026-05-08 01:02 43.07554 -75.98968 31923 ft 397 kts 269°
2026-05-08 01:02 43.07725 -76.06516 31924 ft 397 kts 268°
2026-05-08 01:03 43.07892 -76.14078 31929 ft 397 kts 268°
2026-05-08 01:03 43.08052 -76.21609 31925 ft 401 kts 269°
2026-05-08 01:04 43.08210 -76.29244 31922 ft 402 kts 269°
2026-05-08 01:04 43.08365 -76.36896 31923 ft 402 kts 269°
2026-05-08 01:05 43.08514 -76.44547 31923 ft 402 kts 269°
2026-05-08 01:05 43.08657 -76.52153 31937 ft 402 kts 269°
2026-05-08 01:06 43.08794 -76.59840 31923 ft 404 kts 269°
2026-05-08 01:06 43.08908 -76.67543 31922 ft 404 kts 266°
2026-05-08 01:07 43.08914 -76.75230 31923 ft 405 kts 270°
2026-05-08 01:07 43.09125 -76.82890 31928 ft 405 kts 270°
2026-05-08 01:08 43.09334 -76.90613 31933 ft 406 kts 270°
2026-05-08 01:08 43.09536 -76.98358 31933 ft 407 kts 270°
2026-05-08 01:09 43.09720 -77.06106 31935 ft 407 kts 270°
2026-05-08 01:09 43.09919 -77.13837 31933 ft 404 kts 270°
2026-05-08 01:10 43.10105 -77.21458 31935 ft 402 kts 270°
2026-05-08 01:10 43.10283 -77.29120 31934 ft 403 kts 270°
2026-05-08 01:11 43.10456 -77.36781 31937 ft 403 kts 270°
2026-05-08 01:11 43.10623 -77.44425 31929 ft 403 kts 270°
2026-05-08 01:11 43.10706 -77.48239 31698 ft 399 kts 270°
2026-05-08 01:12 43.10786 -77.52037 30883 ft 401 kts 270°
2026-05-08 01:12 43.10865 -77.55887 30007 ft 406 kts 269°
2026-05-08 01:12 43.10943 -77.59745 29359 ft 403 kts 270°
2026-05-08 01:12 43.11020 -77.63557 28754 ft 399 kts 270°
2026-05-08 01:13 43.11095 -77.67336 28128 ft 395 kts 270°
2026-05-08 01:13 43.11168 -77.71090 27516 ft 392 kts 270°
2026-05-08 01:13 43.11238 -77.74756 26922 ft 389 kts 270°
2026-05-08 01:13 43.11307 -77.78456 26310 ft 387 kts 270°
2026-05-08 01:14 43.11375 -77.82142 25719 ft 385 kts 270°
2026-05-08 01:14 43.11441 -77.85809 25127 ft 384 kts 270°
2026-05-08 01:14 43.11506 -77.89448 24549 ft 383 kts 271°
2026-05-08 01:14 43.11570 -77.93098 23984 ft 381 kts 271°
2026-05-08 01:15 43.11632 -77.96718 23451 ft 379 kts 271°
2026-05-08 01:15 43.11691 -78.00280 22799 ft 378 kts 271°
2026-05-08 01:15 43.11751 -78.03857 22234 ft 374 kts 271°
2026-05-08 01:15 43.11809 -78.07399 21685 ft 371 kts 271°
2026-05-08 01:16 43.11865 -78.10909 21125 ft 367 kts 271°
2026-05-08 01:16 43.11919 -78.14392 20565 ft 365 kts 271°
2026-05-08 01:16 43.11972 -78.17848 20012 ft 362 kts 271°
2026-05-08 01:16 43.12024 -78.21283 19470 ft 359 kts 271°
2026-05-08 01:17 43.12074 -78.24684 18931 ft 356 kts 271°
2026-05-08 01:17 43.12123 -78.28069 18393 ft 354 kts 270°
2026-05-08 01:17 43.12170 -78.31427 17809 ft 351 kts 270°
2026-05-08 01:17 43.12216 -78.34754 17249 ft 348 kts 270°
2026-05-08 01:18 43.12261 -78.38061 17019 ft 346 kts 270°
2026-05-08 01:18 43.12305 -78.41360 17005 ft 348 kts 270°
2026-05-08 01:18 43.12348 -78.44677 17007 ft 348 kts 270°
2026-05-08 01:18 43.12390 -78.47998 17007 ft 348 kts 270°
2026-05-08 01:19 43.12431 -78.51313 17008 ft 348 kts 270°
2026-05-08 01:19 43.12471 -78.54634 17010 ft 349 kts 270°
2026-05-08 01:19 43.12510 -78.57957 17010 ft 349 kts 270°
2026-05-08 01:19 43.12548 -78.61227 17010 ft 349 kts 270°
2026-05-08 01:20 43.12585 -78.64542 16853 ft 347 kts 270°
2026-05-08 01:20 43.12622 -78.67839 16246 ft 345 kts 270°
2026-05-08 01:20 43.12657 -78.71116 15643 ft 344 kts 270°
2026-05-08 01:20 43.12691 -78.74377 15075 ft 342 kts 270°
2026-05-08 01:21 43.12724 -78.77617 14531 ft 339 kts 270°
2026-05-08 01:21 43.12755 -78.80838 14000 ft 337 kts 269°
2026-05-08 01:21 43.12786 -78.84009 13440 ft 334 kts 269°
2026-05-08 01:21 43.12815 -78.87178 12857 ft 332 kts 269°
2026-05-08 01:22 43.12843 -78.90324 12298 ft 329 kts 270°
2026-05-08 01:22 43.12870 -78.93451 11755 ft 326 kts 270°
2026-05-08 01:22 43.12894 -78.96538 11248 ft 322 kts 270°
2026-05-08 01:22 43.12919 -78.99593 11038 ft 321 kts 270°
2026-05-08 01:23 43.12971 -79.02624 11005 ft 322 kts 273°
2026-05-08 01:23 43.13312 -79.05655 11006 ft 323 kts 284°
2026-05-08 01:23 43.14259 -79.08449 11028 ft 325 kts 301°
2026-05-08 01:23 43.15620 -79.10942 11017 ft 327 kts 306°
2026-05-08 01:24 43.17065 -79.13356 11026 ft 327 kts 307°
2026-05-08 01:24 43.18517 -79.15758 11017 ft 327 kts 307°
2026-05-08 01:24 43.19967 -79.18165 11024 ft 327 kts 307°
2026-05-08 01:24 43.21411 -79.20574 11023 ft 327 kts 306°
2026-05-08 01:25 43.22855 -79.22991 11028 ft 327 kts 306°
2026-05-08 01:25 43.24277 -79.25375 11023 ft 327 kts 306°
2026-05-08 01:25 43.25718 -79.27796 11030 ft 327 kts 306°
2026-05-08 01:25 43.27155 -79.30213 11023 ft 326 kts 306°
2026-05-08 01:26 43.28554 -79.32563 11015 ft 308 kts 306°
2026-05-08 01:26 43.29961 -79.34670 11014 ft 292 kts 314°
2026-05-08 01:26 43.31586 -79.36252 10924 ft 283 kts 326°
2026-05-08 01:26 43.33328 -79.37465 10652 ft 279 kts 330°
2026-05-08 01:27 43.35071 -79.38605 10300 ft 275 kts 326°
2026-05-08 01:27 43.36500 -79.40257 9922 ft 266 kts 306°
2026-05-08 01:27 43.37499 -79.42361 9489 ft 261 kts 291°
2026-05-08 01:27 43.38015 -79.44704 9057 ft 259 kts 281°
2026-05-08 01:28 43.38372 -79.47119 8605 ft 258 kts 280°
2026-05-08 01:28 43.38708 -79.49541 8184 ft 257 kts 280°
2026-05-08 01:28 43.39036 -79.51941 8024 ft 254 kts 280°
2026-05-08 01:28 43.39363 -79.54347 8003 ft 256 kts 280°
2026-05-08 01:29 43.39689 -79.56750 8002 ft 256 kts 280°
2026-05-08 01:29 43.40016 -79.59160 8009 ft 256 kts 280°
2026-05-08 01:29 43.40366 -79.61558 8005 ft 256 kts 284°
2026-05-08 01:29 43.41028 -79.63836 8007 ft 258 kts 298°
2026-05-08 01:30 43.42179 -79.65731 8014 ft 261 kts 319°
2026-05-08 01:30 43.43815 -79.66856 8009 ft 268 kts 343°
2026-05-08 01:30 43.45673 -79.66865 8015 ft 277 kts
2026-05-08 01:30 43.47470 -79.65861 8014 ft 280 kts 27°
2026-05-08 01:31 43.49049 -79.64395 8000 ft 266 kts 32°
2026-05-08 01:31 43.50515 -79.62941 8001 ft 258 kts 31°
2026-05-08 01:31 43.52000 -79.61498 8013 ft 264 kts 31°
2026-05-08 01:31 43.53522 -79.60056 7766 ft 266 kts 30°
2026-05-08 01:32 43.55051 -79.58632 7448 ft 264 kts 30°
2026-05-08 01:32 43.56568 -79.57230 7120 ft 262 kts 30°
2026-05-08 01:32 43.58085 -79.55836 6790 ft 261 kts 30°
2026-05-08 01:32 43.59559 -79.54383 6456 ft 261 kts 38°
2026-05-08 01:33 43.60871 -79.52655 6149 ft 260 kts 43°
2026-05-08 01:33 43.62117 -79.50854 5817 ft 258 kts 44°
2026-05-08 01:33 43.63341 -79.49058 5509 ft 256 kts 44°
2026-05-08 01:33 43.64562 -79.47268 5191 ft 254 kts 44°
2026-05-08 01:34 43.65757 -79.45519 4807 ft 251 kts 44°
2026-05-08 01:34 43.66952 -79.43770 4364 ft 249 kts 44°
2026-05-08 01:34 43.68142 -79.42032 4054 ft 247 kts 45°
2026-05-08 01:34 43.69324 -79.40305 4001 ft 246 kts 45°
2026-05-08 01:35 43.70503 -79.38580 4009 ft 247 kts 45°
2026-05-08 01:35 43.71685 -79.36852 4009 ft 247 kts 45°
2026-05-08 01:35 43.72867 -79.35124 4008 ft 247 kts 45°
2026-05-08 01:35 43.74084 -79.33454 3985 ft 245 kts 34°
2026-05-08 01:36 43.75618 -79.32570 3746 ft 237 kts
2026-05-08 01:36 43.77143 -79.32908 3598 ft 219 kts 333°
2026-05-08 01:36 43.78403 -79.34029 3245 ft 214 kts 320°
2026-05-08 01:36 43.79237 -79.35670 3028 ft 211 kts 286°
2026-05-08 01:37 43.79301 -79.37694 3010 ft 212 kts 263°
2026-05-08 01:37 43.79068 -79.39710 3005 ft 212 kts 260°
2026-05-08 01:37 43.78803 -79.41640 2992 ft 197 kts 258°
2026-05-08 01:37 43.78381 -79.43420 3000 ft 194 kts 245°
2026-05-08 01:38 43.77639 -79.44970 3009 ft 194 kts 231°
2026-05-08 01:38 43.76741 -79.46298 3002 ft 181 kts 227°
2026-05-08 01:38 43.75891 -79.47522 2992 ft 171 kts 228°
2026-05-08 01:38 43.75117 -79.48655 2994 ft 161 kts 229°
2026-05-08 01:39 43.74352 -79.49783 2651 ft 161 kts 228°
2026-05-08 01:39 43.73579 -79.50909 2391 ft 161 kts 229°
2026-05-08 01:39 43.72809 -79.52030 2227 ft 162 kts 228°
2026-05-08 01:39 43.72064 -79.53113 2142 ft 148 kts 228°
2026-05-08 01:40 43.71366 -79.54132 1803 ft 143 kts 229°
2026-05-08 01:40 43.70698 -79.55116 1558 ft 140 kts 227°
2026-05-08 01:40 43.70026 -79.56085 1342 ft 138 kts 228°
2026-05-08 01:40 43.69357 -79.57056 1141 ft 140 kts 227°
2026-05-08 01:41 43.68695 -79.58026 927 ft 138 kts 227°
2026-05-08 01:41 43.68037 -79.58989 746 ft 138 kts 228°
2026-05-08 01:41 43.67374 -79.59950 583 ft 137 kts 227°
2026-05-08 01:41 43.66788 -79.60803 575 ft 101 kts 226°
2026-05-08 01:42 43.66430 -79.61323 576 ft 51 kts 226°
2026-05-08 01:42 43.66195 -79.61664 579 ft 48 kts 227°
2026-05-08 01:42 43.66010 -79.62015 585 ft 35 kts 251°
2026-05-08 01:42 43.65999 -79.62203 573 ft 21 kts 306°
2026-05-08 01:43 43.66102 -79.62337 565 ft 20 kts 315°
2026-05-08 01:43 43.66214 -79.62483 560 ft 23 kts 320°
2026-05-08 01:43 43.66310 -79.62458 560 ft 13 kts 45°
2026-05-08 01:43 43.66352 -79.62404 565 ft 12 kts 43°
2026-05-08 01:44 43.66442 -79.62296 564 ft 14 kts 41°
2026-05-08 01:44 43.66516 -79.62205 566 ft 15 kts 43°
2026-05-08 01:44 43.66603 -79.62095 570 ft 18 kts 41°
2026-05-08 01:44 43.66668 -79.62014 563 ft 20 kts 41°
2026-05-08 01:45 43.66776 -79.61876 561 ft 22 kts 42°
2026-05-08 01:45 43.66886 -79.61736 562 ft 22 kts 43°
2026-05-08 01:45 43.67000 -79.61593 565 ft 22 kts 42°
2026-05-08 01:45 43.67113 -79.61450 566 ft 23 kts 43°
2026-05-08 01:46 43.67218 -79.61294 566 ft 20 kts 53°
2026-05-08 01:46 43.67316 -79.61313 561 ft 17 kts 316°
2026-05-08 01:46 43.67407 -79.61431 566 ft 18 kts 317°
2026-05-08 01:46 43.67496 -79.61547 573 ft 18 kts 316°
2026-05-08 01:47 43.67588 -79.61667 574 ft 18 kts 316°
2026-05-08 01:47 43.67677 -79.61785 570 ft 18 kts 317°
2026-05-08 01:47 43.67772 -79.61908 569 ft 18 kts 316°
2026-05-08 01:48 43.67974 -79.62017 563 ft 16 kts 50°
2026-05-08 01:48 43.68010 -79.61899 568 ft 12 kts 51°
2026-05-08 01:48 43.68049 -79.61823 570 ft 4 kts 94°
2026-05-08 01:48 43.68028 -79.61805 574 ft 8 kts 147°
2026-05-08 01:49 43.67989 -79.61756 569 ft 0 kts 135°